CAPE
0 0 0 0 0 0 0 0 0 0 0 73 77 77 65 73 51 0 0 0 0 0 0 0 0 0 0 0 0 0 0 0 0 0 0 0 0 0 0 0 0 0 0 0
0 0 0 0 0 0 0 0 0 0 0 0 1 3 0 115 126 111 176 104 8 0 0 0 0 0 0 0 0 0 0 0 0 0 0 0 0 0 0 0 0 0 0 0
0 0 0 0 0 0 0 0 0 0 0 9 0 0 0 54 286 301 364 391 275 76 0 0 0 0 0 0 0 0 0 0 0 0 0 0 0 0 0 0 0 0 0 0
0 0 0 0 0 0 0 0 0 0 5 2 0 1 0 0 9 299 443 468 434 282 84 0 0 0 0 0 0 0 0 0 0 0 0 0 0 0 0 0 0 0 0 0
0 0 0 0 0 0 0 0 0 3 14 0 0 4 0 0 2 1 0 184 313 228 217 65 3 0 0 0 0 0 0 0 0 0 0 0 0 0 0 0 0 0 0 0
0 0 0 0 0 0 0 1 0 0 0 0 0 5 0 0 2 0 0 0 0 0 0 0 0 0 0 0 0 0 0 0 0 0 0 0 0 0 0 0 0 0 0 0
0 0 0 0 0 0 0 0 0 0 0 0 0 14 0 0 0 0 0 0 0 0 0 0 0 0 0 0 0 0 0 0 0 0 0 0 0 0 0 0 0 0 0 0
0 0 0 0 0 6 6 0 0 0 0 0 0 0 2 0 0 0 0 0 0 0 0 0 0 0 0 0 0 0 0 0 0 0 0 0 0 0 0 0 0 0 0 0
0 0 0 0 0 11 11 15 0 0 0 0 0 0 0 16 20 10 0 0 0 0 0 0 0 0 0 0 0 0 0 0 0 0 0 0 0 0 0 0 0 0 0 0
0 0 0 0 0 7 12 0 1 0 0 0 0 0 0 1 7 6 0 0 0 0 0 0 0 0 0 0 0 0 0 0 0 0 0 0 0 0 0 0 0 0 0 0
0 0 0 0 0 0 11 7 0 0 0 0 0 0 0 4 4 0 0 0 0 0 0 0 0 0 0 0 0 0 0 0 0 0 0 0 0 0 0 0 0 0 0 0
0 0 0 0 0 0 0 0 0 1 0 0 0 0 0 0 0 0 0 0 0 0 0 0 0 0 0 0 0 0 0 0 0 0 0 0 0 0 0 0 0 0 0 0
0 0 0 0 0 0 0 0 0 0 0 1 0 0 0 7 0 0 0 0 0 0 0 0 0 0 0 0 0 0 0 0 0 0 0 0 0 0 0 0 0 0 0 0
0 0 0 0 0 0 0 0 0 0 0 0 0 0 0 0 21 2 0 0 0 0 0 0 0 0 0 0 0 0 0 0 0 0 0 0 0 0 0 0 0 0 0 0
0 0 0 0 0 0 0 0 0 0 0 0 0 1 16 55 13 2 0 0 0 0 0 0 0 0 0 0 0 0 0 0 0 0 0 0 0 0 0 0 0 0 0 0
0 0 0 0 0 0 0 0 0 0 0 0 5 40 63 43 0 0 0 0 0 0 0 0 0 2 26 2 10 0 0 0 0 0 0 0 0 0 0 0 0 0 0 0
1 1 0 0 0 0 0 0 9 30 58 37 49 13 136 71 49 0 0 0 0 0 0 0 0 0 0 0 6 0 0 0 0 0 0 0 0 0 0 0 0 0 0 0
6 24 38 17 0 0 0 37 37 44 79 61 90 31 72 40 2 0 0 0 0 9 19 10 0 0 0 0 0 0 0 0 0 0 0 0 0 0 0 0 0 0 0 0
0 4 0 0 0 0 0 32 12 2 10 79 58 47 10 1 0 0 0 0 0 44 72 8 0 0 0 0 0 0 0 0 0 0 0 0 0 0 0 0 0 0 0 0
0 0 0 0 1 1 0 56 0 0 37 35 4 27 32 0 6 0 0 6 14 151 57 7 8 0 0 0 0 0 0 0 0 0 0 0 0 0 0 0 0 0 0 0
6 0 36 0 36 38 0 36 0 58 13 114 87 71 43 48 19 0 0 49 86 161 51 0 0 0 0 0 0 0 0 0 0 0 0 0 0 0 0 0 0 0 0 0
1 30 54 0 13 15 72 108 84 29 70 157 138 128 172 76 21 19 71 126 105 189 12 0 0 0 0 0 0 0 0 0 0 0 0 0 0 0 0 0 0 0 0 0
28 0 0 3 24 0 17 134 130 167 134 186 103 70 7 0 2 1 44 85 113 159 16 0 0 0 0 0 0 0 0 0 0 0 0 0 0 0 0 0 0 0 0 0
0 1 46 33 3 0 34 66 175 221 190 215 133 13 0 10 184 211 253 67 170 91 4 0 0 0 0 0 0 0 0 0 0 0 0 0 0 0 0 0 0 0 0 0
25 28 4 4 1 0 0 2 30 77 120 141 78 28 81 52 127 56 37 87 147 79 0 0 0 0 0 0 0 0 0 0 0 0 0 0 0 0 0 0 0 0 0 0
16 55 4 0 0 0 0 0 14 11 0 18 78 77 189 167 110 6 14 24 116 88 0 0 0 0 0 0 0 0 0 0 0 0 0 0 0 0 0 0 0 0 0 0
CIN
-0 -0 -0 -0 -0 -0 -0 -0 -0 -0 -0 -172 -158 -177 -218 -290 -377 -0 -0 -129 -0 -0 -0 -0 -0 -0 -0 -0 -0 -0 -0 -0 -0 -0 -0 -0 -0 -0 -0 -0 -0 -0 -0 -0
-0 -0 -0 -0 -0 -0 -0 -0 -0 -0 -0 -0 -73 -113 -0 -255 -345 -335 -343 -381 -389 -0 -0 -0 -0 -0 -0 -0 -0 -0 -0 -0 -0 -0 -0 -0 -0 -0 -0 -0 -0 -0 -0 -0
-0 -0 -0 -0 -0 -0 -0 -0 -0 -0 -0 -114 -0 -0 -0 -261 -328 -334 -332 -330 -319 -343 -0 -0 -0 -0 -0 -0 -0 -0 -0 -0 -0 -0 -0 -0 -0 -0 -0 -0 -0 -0 -0 -0
-0 -0 -0 -0 -0 -0 -0 -0 -0 -0 -61 -8 -0 -4 -0 -0 -131 -257 -243 -249 -237 -269 -313 -0 -0 -0 -0 -0 -0 -0 -0 -0 -0 -0 -0 -0 -0 -0 -0 -0 -0 -0 -0 -0
-0 -0 -0 -0 -0 -0 -0 -0 -0 -117 -96 -0 -0 -67 -0 -0 -59 -26 -0 -179 -255 -239 -239 -241 -444 -2 -0 -0 -0 -0 -0 -0 -0 -0 -0 -0 -0 -0 -0 -0 -0 -0 -0 -0
-0 -0 -0 -0 -0 -0 -0 -33 -0 -0 -0 -0 -0 -92 -0 -17 -41 -17 -0 -0 -0 -0 -0 -0 -0 -0 -0 -0 -0 -0 -0 -0 -0 -0 -0 -0 -0 -0 -0 -0 -0 -0 -0 -0
-0 -0 -0 -0 -0 -0 -0 -0 -0 -0 -0 -0 -0 -124 -0 -0 -0 -0 -0 -0 -0 -29 -0 -0 -0 -0 -0 -0 -0 -0 -0 -0 -0 -0 -0 -0 -0 -0 -0 -0 -0 -0 -0 -0
-0 -0 -0 -0 -0 -28 -90 -17 -0 -0 -0 -0 -0 -0 -40 -0 -16 -0 -0 -0 -0 -0 -0 -0 -0 -0 -0 -0 -0 -0 -0 -0 -0 -0 -0 -0 -0 -0 -0 -0 -0 -0 -0 -0
-0 -0 -0 -0 -0 -90 -78 -52 -0 -0 -0 -0 -0 -0 -0 -187 -165 -195 -0 -0 -0 -0 -0 -0 -0 -0 -0 -0 -0 -0 -0 -0 -0 -0 -0 -0 -0 -0 -0 -0 -0 -0 -0 -0
-0 -0 -0 -0 -0 -203 -87 -0 -15 -0 -0 -0 -0 -0 -0 -22 -88 -150 -0 -0 -0 -0 -0 -0 -0 -0 -0 -0 -0 -0 -0 -0 -0 -0 -0 -0 -0 -0 -0 -0 -0 -0 -0 -0
-0 -0 -0 -0 -0 -0 -82 -55 -0 -0 -0 -0 -0 -0 -0 -97 -110 -8 -0 -0 -0 -0 -0 -0 -0 -0 -0 -0 -0 -0 -0 -0 -0 -0 -0 -0 -0 -0 -0 -0 -0 -0 -0 -0
-0 -0 -0 -0 -0 -0 -0 -0 -0 -13 -0 -0 -0 -0 -0 -0 -0 -0 -0 -0 -0 -0 -0 -0 -0 -0 -0 -0 -0 -0 -0 -0 -0 -0 -0 -0 -0 -0 -0 -0 -0 -0 -0 -0
-0 -0 -0 -0 -0 -0 -0 -0 -0 -0 -0 -16 -0 -0 -0 -266 -0 -11 -0 -0 -0 -0 -0 -0 -0 -0 -0 -0 -0 -0 -0 -0 -0 -0 -0 -0 -0 -0 -0 -0 -0 -0 -0 -0
-0 -0 -0 -0 -0 -0 -0 -0 -0 -0 -0 -0 -0 -0 -0 -0 -150 -141 -0 -0 -0 -0 -0 -0 -0 -0 -0 -0 -0 -0 -0 -0 -0 -0 -0 -0 -0 -0 -0 -0 -0 -0 -0 -0
-0 -0 -0 -0 -0 -0 -0 -0 -0 -0 -0 -0 -0 -47 -66 -108 -178 -89 -0 -0 -0 -0 -0 -0 -0 -0 -0 -0 -0 -0 -0 -0 -0 -0 -0 -0 -0 -0 -0 -0 -0 -0 -0 -0
-0 -0 -0 -0 -0 -0 -0 -0 -0 -0 -0 -0 -43 -58 -148 -216 -4 -0 -0 -0 -0 -0 -0 -0 -0 -252 -235 -114 -197 -0 -0 -0 -0 -0 -0 -0 -0 -0 -0 -0 -0 -0 -0 -0
-32 -16 -0 -0 -0 -0 -0 -0 -43 -88 -148 -144 -58 -101 -175 -155 -139 -0 -0 -0 -0 -0 -0 -0 -0 -0 -0 -0 -148 -0 -0 -0 -0 -0 -0 -0 -0 -0 -0 -0 -0 -0 -0 -0
-148 -129 -138 -114 -0 -0 -0 -195 -176 -131 -174 -229 -156 -168 -194 -211 -110 -0 -0 -0 -0 -111 -120 -151 -0 -0 -0 -0 -0 -0 -0 -0 -0 -0 -0 -0 -0 -0 -0 -0 -0 -0 -0 -0
-0 -25 -0 -0 -0 -0 -15 -140 -137 -23 -114 -212 -169 -167 -187 -51 -0 -0 -0 -0 -0 -112 -132 -114 -0 -0 -0 -0 -0 -0 -0 -0 -0 -0 -0 -0 -0 -0 -0 -0 -0 -0 -0 -0
-0 -0 -0 -0 -6 -6 -0 -197 -0 -0 -92 -199 -205 -131 -122 -12 -90 -0 -0 -160 -130 -200 -203 -206 -227 -0 -0 -0 -0 -0 -0 -0 -0 -0 -0 -0 -0 -0 -0 -0 -0 -0 -0 -0
-96 -0 -53 -0 -67 -13 -0 -231 -0 -58 -65 -154 -203 -179 -175 -105 -88 -0 -0 -161 -193 -214 -249 -0 -0 -0 -0 -0 -0 -0 -0 -0 -0 -0 -0 -0 -0 -0 -0 -0 -0 -0 -0 -0
-27 -139 -113 -6 -56 -50 -235 -172 -75 -54 -187 -169 -228 -235 -203 -220 -289 -254 -172 -179 -209 -204 -301 -0 -0 -0 -0 -0 -0 -0 -0 -0 -0 -0 -0 -0 -0 -0 -0 -0 -0 -0 -0 -0
-111 -0 -0 -21 -109 -0 -230 -160 -187 -278 -245 -240 -257 -281 -376 -93 -159 -276 -200 -222 -274 -252 -273 -0 -0 -0 -0 -0 -0 -0 -0 -0 -0 -0 -0 -0 -0 -0 -0 -0 -0 -0 -0 -0
-0 -50 -125 -119 -11 -16 -170 -224 -220 -285 -285 -312 -316 -403 -0 -284 -200 -173 -163 -292 -297 -305 -286 -0 -0 -0 -0 -0 -0 -0 -0 -0 -0 -0 -0 -0 -0 -0 -0 -0 -0 -0 -0 -0
-73 -92 -14 -158 -18 -0 -0 -93 -270 -293 -302 -300 -346 -368 -307 -270 -160 -215 -211 -304 -276 -294 -0 -0 -0 -0 -0 -0 -0 -0 -0 -0 -0 -0 -0 -0 -0 -0 -0 -0 -0 -0 -0 -0
-197 -91 -114 -0 -0 -0 -0 -0 -241 -143 -0 -363 -307 -260 -273 -272 -274 -343 -248 -294 -293 -281 -0 -0 -0 -0 -0 -0 -0 -0 -0 -0 -0 -0 -0 -0 -0 -0 -0 -0 -0 -0 -0 -0
Wind_Speed
15 14 13 10 12 14 17 17 15 16 13 9 3 2 1 3 2 2 2 5 5 4 2 2 1 2 3 7 10 12 14 13 15 16 16 14 13 12 12 12 13 15 17 19
13 13 20 16 20 17 19 17 12 16 21 14 20 11 14 18 7 10 11 7 5 7 5 5 6 3 1 2 6 9 10 13 13 15 16 17 15 14 12 11 10 13 15 17
13 16 21 27 25 18 14 16 18 21 22 21 24 20 21 23 19 12 8 4 4 6 8 7 5 7 4 2 3 4 9 12 12 14 16 17 17 17 15 13 11 11 12 14
14 17 24 29 24 18 18 15 15 18 22 24 21 26 20 20 18 14 6 2 2 5 6 9 9 9 6 3 4 7 9 11 13 14 14 14 13 15 16 15 13 13 12 12
12 21 25 22 24 20 20 18 19 18 20 20 24 22 21 18 23 23 11 5 8 9 8 11 10 9 6 6 13 24 13 6 10 12 12 13 14 16 17 17 15 16 14 13
13 17 16 17 20 20 16 21 23 21 25 28 25 22 23 20 21 22 23 21 20 16 11 9 10 6 7 8 7 6 3 2 6 11 13 13 14 15 16 16 17 17 15 13
19 15 17 15 19 19 19 22 24 26 29 28 24 22 19 18 24 17 14 21 14 13 12 20 14 9 7 8 7 7 3 9 7 8 11 11 13 15 15 16 14 15 14 13
14 15 15 18 17 18 19 21 25 26 28 27 23 24 24 19 20 17 17 22 29 22 27 25 17 10 8 9 10 9 10 7 7 7 8 11 12 14 14 14 13 14 15 13
10 12 12 16 15 16 20 23 21 23 23 23 20 22 20 18 19 20 22 25 26 33 38 30 19 14 11 11 9 9 8 6 6 6 7 9 10 12 12 13 13 13 15 14
8 14 14 10 15 20 18 16 22 23 25 22 22 22 18 20 20 18 19 21 29 33 38 35 21 16 13 11 11 10 11 10 6 5 6 9 9 10 10 11 12 12 12 13
9 10 13 16 18 19 16 17 19 20 21 20 20 21 17 14 14 16 18 22 25 30 33 30 24 16 12 10 9 8 10 10 6 4 6 8 9 10 10 10 9 10 10 10
10 11 16 18 19 16 15 13 17 18 19 17 15 16 20 17 18 17 20 21 25 28 28 26 24 19 13 9 7 7 7 7 8 6 7 8 10 11 9 8 7 8 8 9
10 16 19 20 18 17 16 17 19 19 17 15 17 17 19 19 18 19 24 24 26 27 30 26 22 19 16 11 9 6 3 5 9 11 11 12 11 9 5 6 5 6 6 6
15 17 18 19 15 14 18 20 15 15 19 17 15 18 19 16 14 18 25 23 26 28 28 27 24 20 17 14 11 10 8 8 12 14 15 15 12 11 7 5 4 4 5 6
17 17 18 15 11 12 15 19 16 14 15 18 21 18 16 15 19 19 20 23 28 30 30 32 31 25 20 18 15 14 14 14 13 15 17 15 16 14 10 5 4 7 10 11
19 16 16 18 14 19 18 16 17 18 18 14 17 17 18 19 20 18 20 21 22 25 27 30 31 27 22 19 18 19 17 15 15 16 16 17 16 15 13 12 13 14 15 18
16 15 16 18 20 21 17 17 17 19 20 18 19 20 15 16 21 22 22 20 18 19 23 27 29 25 22 19 17 18 17 16 17 18 19 18 15 14 15 18 20 21 22 23
15 15 15 17 20 22 15 17 15 17 18 21 18 18 18 18 19 15 18 25 18 18 24 25 26 24 22 19 18 18 18 19 20 20 19 19 18 19 22 24 25 24 25 28
17 15 18 19 19 21 17 16 18 19 19 19 19 19 19 18 21 18 19 19 14 16 19 22 23 22 21 20 18 19 22 21 21 24 23 22 21 22 24 26 26 26 28 29
18 17 17 20 24 25 20 19 19 18 25 17 18 18 15 18 22 20 16 18 16 15 18 21 20 21 21 21 20 21 22 22 24 24 23 23 23 23 25 25 27 27 27 28
20 20 20 20 22 22 18 19 19 25 26 19 18 17 15 15 21 21 14 17 17 12 15 17 18 19 19 19 19 21 21 22 22 22 22 24 24 24 24 26 27 26 27 28
19 20 20 20 23 25 19 20 20 22 23 20 19 18 19 22 26 19 11 16 11 9 12 15 16 17 17 18 20 20 21 21 22 22 23 24 24 24 24 26 26 27 27 28
21 19 20 17 21 19 18 17 18 23 23 24 21 19 26 29 28 15 16 18 7 8 11 13 14 16 17 19 20 20 20 20 21 22 23 23 23 24 25 25 26 26 27 27
18 16 20 22 20 19 20 21 20 23 23 22 23 23 27 25 25 18 18 12 7 9 11 12 13 14 17 19 20 20 19 21 21 22 23 23 24 23 23 24 24 26 27 27
20 18 21 22 23 24 22 21 26 26 23 22 23 24 27 20 18 16 15 9 7 9 11 10 11 12 16 18 20 20 19 19 20 21 22 23 23 22 22 23 24 25 25 25
17 19 21 23 22 22 24 24 26 30 27 20 21 22 22 18 17 16 14 12 9 8 9 10 11 13 16 19 20 19 18 16 18 20 21 22 21 20 20 21 21 22 23 25
Wind_Direction
357 80 69 64 76 17 16 28 44 44 73 93 127 321 340 26 239 294 175 177 192 218 266 234 287 8 25 31 32 33 34 41 33 26 28 31 31 34 34 33 32 31 28 25
32 56 28 52 44 50 8 26 63 47 33 54 26 33 45 34 59 161 181 193 218 236 273 284 307 302 298 19 19 33 42 42 46 39 36 33 36 31 36 36 37 32 27 24
5 11 10 359 354 28 44 28 30 23 26 31 18 33 38 33 47 83 137 176 227 258 268 265 271 230 231 341 14 41 42 44 52 42 34 35 37 34 32 32 32 31 29 24
345 356 342 333 5 39 16 43 39 29 22 23 35 15 42 45 54 68 106 93 319 314 307 270 269 252 242 267 10 16 25 33 44 39 36 41 40 30 28 29 31 25 26 25
342 330 320 348 354 27 18 34 26 28 26 29 23 22 34 37 20 32 61 40 17 349 305 291 270 250 276 335 332 310 350 57 48 46 47 38 31 26 26 26 24 21 24 29
328 337 356 360 6 14 34 358 359 8 7 2 16 20 22 39 18 13 19 26 22 18 351 337 8 20 3 348 59 18 175 132 86 53 42 36 30 25 20 20 18 20 25 27
309 332 341 12 6 16 24 2 3 3 4 9 16 19 28 37 13 30 31 19 16 6 338 27 36 62 94 109 107 95 40 159 113 63 38 38 30 26 23 21 22 20 24 26
319 320 347 352 7 12 3 6 4 360 359 4 19 19 15 34 29 40 35 22 14 23 25 27 29 55 80 109 124 133 110 121 113 70 48 37 32 28 26 23 25 26 24 28
322 321 343 356 16 13 360 353 7 7 6 5 10 13 16 28 28 23 24 20 21 15 7 21 42 58 80 114 133 114 82 85 95 71 47 38 31 27 26 27 28 26 24 25
322 314 328 359 359 355 355 12 359 4 1 2 3 10 17 18 24 24 29 27 18 17 10 19 45 65 87 111 118 83 67 68 92 74 48 29 26 27 28 26 23 25 23 22
318 328 321 335 340 341 354 358 6 9 6 5 6 9 27 38 35 36 30 26 24 20 19 26 42 60 77 91 107 95 59 50 58 74 42 26 21 20 22 18 18 17 18 15
338 344 323 333 340 352 357 14 6 5 4 9 18 16 19 28 30 32 28 24 20 14 19 27 36 45 59 68 102 114 64 50 44 48 33 25 18 13 13 14 12 14 6 7
6 334 327 327 340 351 359 1 356 4 12 13 10 13 15 11 16 12 10 14 14 14 8 18 27 28 37 55 71 83 85 47 32 28 25 20 14 14 14 11 5 7 359 352
358 343 345 338 356 8 357 351 17 24 11 14 10 5 10 19 23 13 5 14 11 9 11 13 20 26 33 42 54 54 51 46 29 27 23 18 20 23 24 18 5 356 359 341
336 357 7 22 42 27 11 360 17 21 17 7 5 5 11 15 10 11 15 11 6 2 7 357 5 20 26 33 46 46 46 43 39 34 24 32 32 37 41 49 33 16 8 357
334 355 10 8 25 4 4 16 17 15 17 11 6 8 5 1 1 9 12 13 9 4 6 1 3 18 27 37 40 36 40 45 43 32 36 31 34 35 36 33 22 14 8 7
352 7 4 355 359 357 7 16 15 14 11 9 3 5 20 15 2 355 358 10 21 19 7 7 5 19 31 38 41 38 46 50 40 32 28 31 35 32 29 22 18 16 12 10
351 356 359 358 358 351 12 13 16 12 11 5 7 7 6 6 8 15 3 350 8 6 354 1 6 20 29 37 44 50 47 36 31 27 25 26 30 30 22 18 16 18 16 11
330 341 337 341 346 351 4 9 4 2 1 4 1 359 359 4 359 2 3 4 12 8 9 8 13 23 31 34 40 35 27 28 28 21 22 24 26 22 19 16 18 19 15 17
351 349 340 337 331 334 357 2 6 7 350 10 1 356 353 359 355 348 1 8 4 7 9 9 14 23 29 29 33 29 27 28 22 20 25 25 24 23 20 21 20 22 24 25
331 338 340 341 339 345 357 359 2 348 349 0 359 357 0 357 354 353 14 9 358 20 16 17 19 24 27 35 33 25 27 25 24 27 27 23 23 24 26 25 24 25 26 28
333 334 338 343 339 337 0 354 349 350 350 353 356 355 350 343 343 347 350 348 3 27 25 19 18 22 29 33 27 25 23 23 23 26 25 25 28 29 29 27 27 28 29 27
328 338 338 345 343 348 353 350 348 344 345 348 349 351 344 341 344 353 352 348 29 40 24 16 20 23 24 24 22 21 22 23 23 25 25 30 31 29 29 31 33 32 29 27
342 349 339 339 345 343 341 340 340 341 340 341 342 341 338 340 346 348 347 359 29 24 16 19 20 24 21 18 18 18 23 21 25 25 25 29 28 30 34 34 35 32 30 27
331 338 334 332 336 336 340 342 338 339 340 338 339 341 339 341 347 356 360 4 5 12 12 17 21 26 18 16 14 17 22 27 27 29 28 28 28 34 36 35 34 32 33 30
329 329 329 331 340 340 338 341 343 340 343 349 350 349 353 356 355 2 17 1 358 13 10 14 23 20 14 12 13 17 26 36 32 28 26 25 31 34 34 32 32 33 32 30